Stuttgart Echterdingen, Germany

9:52 PM CEST on April 27, 2017 (GMT +0200)
Stuttgart

Weather History for EDDS - July, 2013

Change the Weather History Date:

Sunday, July 7, 2013

  Actual Average Record
Temperature  
Mean Temperature 69 °F -  
Max Temperature 79 °F 70 °F 95 °F (2015)
Min Temperature 59 °F 54 °F 50 °F (1996)
Cooling Degree Days 4    
Growing Degree Days 19 (Base 50)    
Moisture  
Dew Point 57 °F    
Average Humidity 60    
Maximum Humidity 88    
Minimum Humidity 37    
Precipitation  
Precipitation 0.00 in - - ()
Sea Level Pressure  
Sea Level Pressure 30.33 in    
Wind  
Wind Speed 6 mph ()    
Max Wind Speed 14 mph    
Max Gust Speed -    
Visibility 11.3 miles    
Events      
Averages and records for this station are not official NWS values.
T = Trace of Precipitation, MM = Missing Value Source: Averaged Metar Reports

Daily Weather History Graph

Daily Weather History Graph

Search for Another Location

Airport or City:

Trip Planner

Search our weather history database for the weather conditions in past years. The results will help you decide how hot, cold, wet, or windy it might be!

Date:

Astronomy

Jul. 07, 2013 Rise Set
Actual Time 5:28 AM CEST 9:26 PM CEST
Civil Twilight 4:47 AM CEST 10:07 PM CEST
Nautical Twilight 3:50 AM CEST 11:05 PM CEST
Astronomical Twilight 2:13 AM CEST 12:39 AM CEST
Moon 4:56 AM CEST (7/7) 8:32 PM CEST (7/7)
Length of Visible Light 17h 20m
Length of Day
15h 57m
Waning Crescent, 1% of the Moon is Illuminated
Jul 7
Waning Crescent
Jul 8
New
Jul 16
First Quarter
Jul 22
Full
Jul 29
Last Quarter

Hourly Weather History & Observations

Time (CEST) Temp. Dew Point Humidity Pressure Visibility Wind Dir Wind Speed Gust Speed Precip Events Conditions
12:00 AM 68 °F 56 °F 55% 30.32 in 19 mi North 2.2 mph - -   Mostly Cloudy
12:20 AM 68.0 °F 55.4 °F 64% 30.36 in - NE 3.5 mph - N/A   Clear
12:50 AM 66.2 °F 55.4 °F 68% 30.36 in - NE 4.6 mph - N/A   Clear
1:00 AM 66 °F 56 °F 61% 30.33 in 19 mi NNE 2.2 mph - -   Scattered Clouds
1:20 AM 64.4 °F 55.4 °F 73% 30.36 in - SW 1.2 mph - N/A   Clear
1:50 AM 64.4 °F 55.4 °F 73% 30.36 in - NE 2.3 mph - N/A   Clear
2:00 AM 64 °F 55 °F 64% 30.33 in 19 mi WSW 2.2 mph - -   Scattered Clouds
2:20 AM 64.4 °F 55.4 °F 73% 30.36 in - NNE 2.3 mph - N/A   Clear
2:50 AM 62.6 °F 55.4 °F 77% 30.36 in - North 3.5 mph - N/A   Clear
3:00 AM 63 °F 55 °F 69% 30.33 in 19 mi North 2.2 mph - -   Scattered Clouds
3:20 AM 62.6 °F 55.4 °F 77% 30.36 in - North 3.5 mph - N/A   Clear
3:50 AM 60.8 °F 55.4 °F 82% 30.33 in - North 3.5 mph - N/A   Clear
4:00 AM 61 °F 55 °F 74% 30.33 in 19 mi North 2.2 mph - -   Scattered Clouds
4:20 AM 60.8 °F 55.4 °F 82% 30.33 in - NNW 3.5 mph - N/A   Clear
4:50 AM 59.0 °F 53.6 °F 82% 30.33 in - NW 2.3 mph - N/A   Clear
5:20 AM 60.8 °F 53.6 °F 77% 30.33 in - WNW 3.5 mph - N/A   Clear
5:50 AM 59.0 °F 55.4 °F 88% 30.33 in - NW 4.6 mph - N/A   Clear
6:00 AM 59 °F 54 °F 80% 30.32 in 12 mi NW 4.5 mph - -   Scattered Clouds
6:20 AM 60.8 °F 55.4 °F 82% 30.33 in - NNE 3.5 mph - N/A   Clear
6:50 AM 62.6 °F 57.2 °F 82% 30.33 in - North 4.6 mph - N/A   Clear
7:00 AM 62 °F 56 °F 77% 30.32 in 12 mi NNW 4.5 mph - -   Scattered Clouds
7:20 AM 64.4 °F 57.2 °F 77% 30.33 in - North 4.6 mph - N/A   Clear
7:50 AM 66.2 °F 57.2 °F 73% 30.33 in - NNE 5.8 mph - N/A   Clear
8:00 AM 66 °F 58 °F 69% 30.32 in 12 mi NNE 4.5 mph - -   Scattered Clouds
8:20 AM 66.2 °F 57.2 °F 73% 30.36 in - North 6.9 mph - N/A   Clear
8:50 AM 68.0 °F 59.0 °F 73% 30.36 in - NNE 5.8 mph - N/A   Clear
9:00 AM 68 °F 58 °F 63% 30.33 in 12 mi NNE 4.5 mph - -   Scattered Clouds
9:20 AM 69.8 °F 59.0 °F 68% 30.36 in - NNE 8.1 mph - N/A   Clear
9:50 AM 71.6 °F 60.8 °F 69% 30.36 in 6.2 mi NNE 8.1 mph - N/A   Partly Cloudy
10:00 AM 71 °F 60 °F 59% 30.32 in 16 mi NNE 8.9 mph - -   Scattered Clouds
10:20 AM 71.6 °F 59.0 °F 64% 30.36 in 6.2 mi NNE 5.8 mph - N/A   Partly Cloudy
10:50 AM 73.4 °F 59.0 °F 61% 30.36 in 6.2 mi NE 10.4 mph - N/A   Partly Cloudy
11:20 AM 73.4 °F 59.0 °F 61% 30.36 in 6.2 mi NE 11.5 mph - N/A   Partly Cloudy
11:50 AM 75.2 °F 59.0 °F 57% 30.36 in 6.2 mi NE 12.7 mph - N/A   Scattered Clouds
12:00 PM 75 °F 59 °F 47% 30.31 in 22 mi NE 13.4 mph - -   Partly Cloudy
12:20 PM 77.0 °F 57.2 °F 50% 30.36 in 6.2 mi NE 12.7 mph - N/A   Scattered Clouds
12:50 PM 75.2 °F 57.2 °F 53% 30.36 in 6.2 mi NE 13.8 mph - N/A   Scattered Clouds
1:00 PM 76 °F 58 °F 43% 30.31 in 25 mi NE 13.4 mph - -   Partly Cloudy
1:20 PM 78.8 °F 57.2 °F 47% 30.36 in 6.2 mi NE 11.5 mph - N/A   Scattered Clouds
1:50 PM 78.8 °F 59.0 °F 51% 30.36 in 6.2 mi ENE 12.7 mph - N/A   Scattered Clouds
2:00 PM 78 °F 59 °F 43% 30.29 in 28 mi NE 13.4 mph - -   Partly Cloudy
2:20 PM 77.0 °F 55.4 °F 47% 30.36 in - NE 10.4 mph - N/A   Clear
2:50 PM 78.8 °F 59.0 °F 51% 30.33 in - ENE 9.2 mph - N/A   Clear
3:00 PM 78 °F 59 °F 42% 30.28 in 28 mi NE 8.9 mph - -   Partly Cloudy
3:20 PM 78.8 °F 59.0 °F 51% 30.33 in - NE 10.4 mph - N/A   Clear
3:50 PM 77.0 °F 57.2 °F 50% 30.33 in - NE 11.5 mph - N/A   Clear
4:00 PM 77 °F 57 °F 40% 30.28 in 28 mi NE 11.2 mph - -   Mostly Cloudy
4:20 PM 77.0 °F 59.0 °F 54% 30.33 in - ENE 10.4 mph - N/A   Clear
4:50 PM 77.0 °F 57.2 °F 50% 30.33 in - NNE 10.4 mph - N/A   Clear
5:20 PM 77.0 °F 57.2 °F 50% 30.33 in - NNE 9.2 mph - N/A   Clear
5:50 PM 78.8 °F 59.0 °F 51% 30.30 in - NNE 10.4 mph - N/A   Clear
6:00 PM 78 °F 59 °F 41% 30.26 in 31 mi North 11.2 mph - -   Partly Cloudy
6:20 PM 78.8 °F 57.2 °F 47% 30.30 in - NE 9.2 mph - N/A   Clear
6:50 PM 78.8 °F 57.2 °F 47% 30.30 in - NNE 11.5 mph - N/A   Clear
7:00 PM 78 °F 57 °F 38% 30.25 in 31 mi North 8.9 mph - -   Partly Cloudy
7:20 PM 77.0 °F 55.4 °F 47% 30.33 in - NNE 12.7 mph - N/A   Clear
7:50 PM 77.0 °F 55.4 °F 47% 30.33 in - NNE 9.2 mph - N/A   Clear
8:00 PM 77 °F 56 °F 37% 30.26 in 31 mi North 8.9 mph - -   Scattered Clouds
8:20 PM 75.2 °F 55.4 °F 50% 30.33 in - NNE 10.4 mph - N/A   Clear
8:50 PM 75.2 °F 53.6 °F 47% 30.33 in - NNE 10.4 mph - N/A   Clear
9:00 PM 75 °F 54 °F 38% 30.28 in 34 mi North 8.9 mph - -   Scattered Clouds
9:20 PM 73.4 °F 53.6 °F 50% 30.33 in - NNE 9.2 mph - N/A   Clear
9:50 PM 71.6 °F 55.4 °F 57% 30.33 in - North 5.8 mph - N/A   Clear
10:00 PM 71 °F 55 °F 47% 30.30 in 31 mi North 6.7 mph - -   Scattered Clouds
10:20 PM 69.8 °F 53.6 °F 56% 30.33 in - North 6.9 mph - N/A   Clear
10:50 PM 69.8 °F 53.6 °F 56% 30.33 in - NNE 8.1 mph - N/A   Clear
11:20 PM 68.0 °F 51.8 °F 56% 30.36 in - NNE 5.8 mph - N/A   Clear
11:50 PM 66.2 °F 51.8 °F 60% 30.36 in - NE 4.6 mph - N/A   Clear